Location: Bocchiglicro
(39.4167°N, 16.7500°E)
Time: 18:40:38
(UTC+00:00)

STARLINK-48 - Pass Details

Date: 07 June 2020
Orbit: 506 x 506 km, 53.0° (Epoch: 02 July)

Event Time Altitude Azimuth Distance (km) Brightness Sun altitude
Exits shadow 00:19:07 48° 338° (NNW) 668 4.2 -24.6°
Drops below altitude 10° 00:22:40 10° 41° (NE) 1,720 7.1 -24.3°
Sets 00:24:55 0° 47° (NE) 2,608 8.2 -24.1°
